Regional Weather Roundup
Issued by NWS Cleveland, OH

Home | Current Version | Previous Version | Graphics & Text | Print | Product List | Glossary On
Versions: 1 2 3 4 5 6 7 8 9 10 11 12 13 14 15 16 17 18 19 20 21 22 23 24 25 26 27 28 29 30 31 32 33 34 35 36 37 38 39 40 41 42 43 44 45 46 47 48 49 50
000
ASUS41 KCLE 232210
RWRCLE
OHIO REGIONAL WEATHER ROUNDUP
NATIONAL WEATHER SERVICE CLEVELAND, OH
600 PM EDT WED JUL 23 2014

NOTE: "FAIR" INDICATES FEW OR NO CLOUDS BELOW 12,000 FEET WITH NO
SIGNIFICANT WEATHER AND/OR OBSTRUCTIONS TO VISIBILITY.

OHZ001>008-015>018-024>027-034-035-043-044-232300-
   NORTHWEST OHIO

CITY           SKY/WX    TMP DP  RH WIND       PRES   REMARKS
DEFIANCE       CLOUDY    77  60  55 N10       30.03S
FINDLAY        CLOUDY    71  63  75 NE8       30.02R
TOLEDO EXPRESS CLOUDY    73  58  59 NE9       30.03S
TOLEDO EXEC    CLOUDY    70  60  70 E6        30.04R
LIMA           CLOUDY    71  64  78 N12       30.03R
$$

OHZ009>014-019>023-028>033-038-089-232300-
   NORTHEAST OHIO

CITY           SKY/WX    TMP DP  RH WIND       PRES   REMARKS
CLE-HOPKINS    CLOUDY    66  58  75 N14       30.04S
CLE-LAKEFRONT  CLOUDY    67  59  75 N14       30.00S
CUY CO. ARPT   CLOUDY    66  61  82 N12       30.02S
LORAIN-ELYRIA  CLOUDY    68  58  70 NE10      30.04S
ASHTABULA      CLOUDY    68  60  75 NW10      30.00S
AKRON-CANTON   CLOUDY    68  60  75 N13       30.00F
WOOSTER        CLOUDY    67  60  78 N12       30.02S
MANSFIELD      CLOUDY    64  63  96 N8        30.03S FOG
YOUNGSTOWN     CLOUDY    66  62  87 NW15      29.99F
$$

OHZ042-051>053-060>062-070>072-077>081-232300-
  SOUTHWEST OHIO

CITY           SKY/WX    TMP DP  RH WIND       PRES   REMARKS
CINC-COVINGTON CLOUDY    81  70  69 E8        29.98S
CINC-LUNKEN    PTSUNNY   80  69  69 NE7       29.97F
HAMILTON       PTSUNNY   80  70  71 N6        29.99S
DAYTON         CLOUDY    74  68  81 N15G21    30.02R
WRIGHT-PAT AFB CLOUDY    78  69  74 NW8       29.99S
DAYTON GENERAL CLOUDY    78  68  71 NW7       29.99S
WILMINGTON     MOSUNNY   79  66  64 NW12      29.99F
$$

OHZ036-037-039>041-045>050-054>059-063>069-073>076-082>088-232300-
  CENTRAL AND SOUTHEAST OHIO

CITY           SKY/WX    TMP DP  RH WIND       PRES   REMARKS
COLUMBUS       CLOUDY    79  67  66 N12       29.97S
OSU AIRPORT    CLOUDY    76  68  76 N10       29.98S
BOLTON FIELD   CLOUDY    77  70  78 NW7       29.99R
RICKENBACK AFB CLOUDY    81  62  53 NW9       29.97R
NEWARK         CLOUDY    76  67  73 NW6       29.97R
MARION         CLOUDY    67  64  90 NE13      30.01S
LANCASTER      PTSUNNY   79  67  66 NW9       29.98R
ZANESVILLE     PTSUNNY   80  67  64 N8        29.97S
NEW PHILLY     CLOUDY    72  66  81 NW9       29.98S
$$



USA.gov is the U.S. government's official web portal to all federal, state and local government web resources and services.